Hourly Weather Roundup
Issued by NWS Central Illinois

Home | Current Version | Previous Version | Text Only | Print | Product List | Glossary On
Versions: 1 2 3 4 5 6 7 8 9 10 11 12 13 14 15 16 17 18 19 20 21 22 23 24 25 26 27 28 29 30 31 32 33 34 35 36 37 38 39 40 41 42 43 44 45 46 47 48 49 50
000
NZUS43 KILX 271910
HWRILX

Area Weather Roundup
National Weather Service Lincoln IL
200 PM CDT SAT MAY 27 2017

NOTE:  "FAIR" indicates few or no clouds below 12,000 feet, with
       no sigificant weather and/or obstructions to visibility.


CITY           SKY/WX    TMP DP  RH WIND       PRES   REMARKS
Bloomington    SUNNY     77  60  55 CALM      29.90F
Champaign      CLOUDY    69  62  78 VRB3      29.91F
Danville       CLOUDY    67  62  84 CALM      29.88F
Decatur        MOSUNNY   72  64  76 E8        29.89F
Effingham      SUNNY     78  65  65 S3        29.90F HX  80
Flora          MOSUNNY   84  66  55 NW3       29.87F HX  86
Galesburg      CLOUDY    74  63  67 SW3       29.89F
Jacksonville   MOSUNNY   75  64  68 E7        29.87F
Lacon          CLOUDY    74  64  70 S5        29.88F
Lawrenceville  PTSUNNY   81  68  64 NW6       29.87F HX  84
Litchfield     CLOUDY    76  63  62 E5        29.88F HAZE
$$


CITY           SKY/WX    TMP DP  RH WIND       PRES   REMARKS
Lincoln        SUNNY     79  62  57 E7        29.88F HX  80
Macomb         CLOUDY    73  64  72 E3        29.89F
Mattoon        MOSUNNY   76  65  68 N6        29.87F
Mt Carmel AP   CLOUDY    81  66  61 CALM      29.86F HX  83
Olney-Noble AP CLOUDY    81  68  64 CALM      29.87F HX  84
Paris AP       PTSUNNY   72  64  77 N5        29.90F
Peoria         CLOUDY    76  61  59 E6        29.88F
Pontiac        MOSUNNY   75  66  72 SE5       29.90F
Rantoul        CLOUDY    72  64  77 E5        29.90F
Robinson       SUNNY     77  65  66 CALM      29.88F
Springfield    SUNNY     80  64  58 VRB7      29.87F HX  82
Taylorville    SUNNY     76  63  65 E6        29.88F
$$

...REGIONAL REPORTS...


CITY           SKY/WX    TMP DP  RH WIND       PRES   REMARKS
Chicago O`Hare MOSUNNY   74  54  49 CALM      29.90S
Kankakee       SUNNY     80  62  53 CALM      29.90F HX  81
Moline         CLOUDY    74  61  63 VRB3      29.88F
Mount Sterling MOSUNNY   74  63  68 E6        29.87F
Mount Vernon     N/A     84  70  62 SW7       29.86F HX  88
Pittsfield     SUNNY     76  65  67 E8        29.88F
Quincy         MOSUNNY   77  63  61 E7        29.88F
Rockford       PTSUNNY   74  61  63 VRB3      29.90F
$$


CITY           SKY/WX    TMP DP  RH WIND       PRES   REMARKS
Burlington     CLOUDY    71  63  75 E5        29.88F
Cedar Rapids   CLOUDY    71  63  75 VRB3      29.88F
Des Moines     LGT RAIN  64  61  90 N16G22    29.84F
Kirksville     PTSUNNY   76  62  62 E10       29.84F
Ottumwa        PTSUNNY   74  64  71 SE9       29.84F
St Louis       CLOUDY    80  63  55 SE9       29.86F HX  81
$$


CITY           SKY/WX    TMP DP  RH WIND       PRES   REMARKS
Terre Haute    SUNNY     78  63  59 NW5       29.88F HX  80
Evansville     MOSUNNY   87  71  58 SW9       29.86F HX  93
Indianapolis   MOSUNNY   76  63  64 W6        29.88S
Lafayette      CLOUDY    69  63  81 CALM      29.89F
Madison        PTSUNNY   72  59  63 VRB5      29.89F
Milwaukee      MOSUNNY   71  55  56 SE12      29.90F
$$






USA.gov is the U.S. government's official web portal to all federal, state and local government web resources and services.